Showing default

OPS 1920, 2481

Orbit data source: Space-Track

OPS 1920, 2481 is a payload satellite owned by USAF SSD (US) in LEO that was launched on Wed, 05 Oct 1966 UTC via an ATLAS SLV-3 AGENA D launch vehicle from the Air Force Western Test Range (AFWTR). Payload-class satellites include a variety of spacecraft equipped with specific instruments for various scientific and technological missions. These include communications satellites like Starlink; space stations such as the ISS; scientific satellites like the Hubble; Earth observation satellites from companies like Planet Labs, Umbra, and HawkEye 360; GPS; miniature CubeSats for education and research; and military/defense satellites.

Loading next visibility...
Identifier
2481, 1966-089A
Orbit
LEO
Country
Flag of USUS
Related business
Manufacturer
LMSC
Mission
Spacecraft
Bus & Motor
MIDAS, Unknown motor
Mass
~2,000 kg wet, ~1,000 kg dry
Launch date (UTC)
1966-10-05 (59 years ago)
Launch vehicle
ATLAS SLV-3 AGENA D
Launch site
Air Force Western Test Range (AFWTR)
Object type
Payload
Rocket body
Debris
Shape & HBR
Unknown
Radar Cross Section
Large (>1 m²)

Expand to show TLE details & history
Last TLE update: 1 day ago

TLE from 1 day ago
0 OPS 1920
1 02481U 66089A   26037.39422503 -.00000017  00000-0 -96476-2 0  9994
2 02481  89.8354  32.1012 0032962  91.1551 269.3078  8.59256126861438
Epoch: 2026-02-06T09:27Z
TLE epoch observation values (Epoch: 2026-02-06T09:27:41.042Z)
Latitude
0.00008°
Longitude
113.64746°
Altitude
3,693.569 km
Speed
6.291 km/s
True Right ascension
02h 08m 24s
True Declination
0° 00' 00"
Sunlit
Object was in daylight at epoch
Visualization orbit readout
Latitude
Unknown
Longitude
Unknown
Altitude
Unknown
Speed
Unknown
Apparent Right ascension
Unknown
Apparent Declination
Unknown
Sunlit
N/A
Visualization observer readout
Local Sidereal Time
17:12:28
Azimuth
Unknown
Elevation
Unknown
Doppler factor
Unknown
Orbital elements
Apogee altitude
3,721.874 km
Perigee altitude
3,655.51 km
Semi-major axis
10,066.829 km
Eccentricity
0.0033
Inclination
89.8354°
RAAN
32.1012°
Arg. of periapsis
91.1551°
True anomaly
268.93013°
Mean anomaly
269.3078°
Eccentric anomaly
269.11896°
Mean motion
2.14884 °/min
Orbital period
167.53 mins
BSTAR
-0.0096476
Loading maneuver chart data...
Computing Atmospheric mass density...
Loading historical data...
Loading historical data...
Loading historical data...
Loading historical data...
Loading historical data...
Loading historical data...
Loading historical data...
Other satellites on launch #89 in the year 1966 (1966-10-05 UTC)

Documentation

Showing up to 5 results
|